Time,TemperatureF,DewpointF,PressureIn,WindDirection,WindDirectionDegrees,WindSpeedMPH,WindSpeedGustMPH,Humidity,HourlyPrecipIn,Conditions,Clouds,dailyrainin,SoftwareType,DateUTC
2013-04-17 00:01:00,54.6,53.7,30.10,WSW,240,12.6,23.1,97,0.00,,BKN085,0.00,VWS V14.01,2013-04-17 04:01:00,
2013-04-17 00:03:00,54.4,53.5,30.10,WSW,257,6.0,14.3,97,0.00,,BKN085,0.00,VWS V14.01,2013-04-17 04:03:00,
2013-04-17 00:07:00,54.4,53.6,30.10,South,187,9.8,18.7,97,0.00,,BKN085,0.00,VWS V14.01,2013-04-17 04:07:00,
2013-04-17 00:13:00,54.2,53.6,30.10,WSW,255,14.5,15.1,98,0.00,,BKN085,0.00,VWS V14.01,2013-04-17 04:13:00,
2013-04-17 00:17:00,54.3,53.8,30.10,West,266,8.9,23.1,98,0.00,,BKN085,0.00,VWS V14.01,2013-04-17 04:17:00,
2013-04-17 00:23:00,54.2,53.7,30.10,WSW,257,10.1,16.6,98,0.00,,BKN085,0.00,VWS V14.01,2013-04-17 04:23:00,
2013-04-17 00:29:00,54.3,53.9,30.09,WSW,250,13.1,18.5,99,0.00,,BKN085,0.00,VWS V14.01,2013-04-17 04:29:00,
2013-04-17 00:35:00,54.5,54.1,30.09,WSW,249,12.3,21.6,98,0.00,,BKN085,0.00,VWS V14.01,2013-04-17 04:35:00,
2013-04-17 00:41:00,54.5,54.1,30.09,SW,231,12.3,16.4,99,0.00,,BKN085,0.00,VWS V14.01,2013-04-17 04:41:00,
2013-04-17 00:47:00,54.5,54.2,30.09,West,266,9.8,12.0,99,0.00,,BKN085,0.00,VWS V14.01,2013-04-17 04:47:00,
2013-04-17 00:53:00,54.8,54.5,30.09,NW,321,9.5,18.4,99,0.00,,BKN085,0.00,VWS V14.01,2013-04-17 04:53:00,
2013-04-17 00:59:00,54.7,54.5,30.09,SW,236,9.3,16.6,99,0.00,,BKN085,0.00,VWS V14.01,2013-04-17 04:59:00,
2013-04-17 01:05:00,54.8,54.6,30.09,WNW,294,9.0,11.0,99,0.00,,BKN110,0.00,VWS V14.01,2013-04-17 05:05:00,
2013-04-17 01:11:00,54.9,54.7,30.08,SW,219,14.3,14.3,99,0.00,,BKN110,0.00,VWS V14.01,2013-04-17 05:11:00,
2013-04-17 01:17:00,55.1,54.9,30.08,WSW,250,6.8,18.5,99,0.00,,BKN110,0.00,VWS V14.01,2013-04-17 05:17:00,
2013-04-17 01:23:00,55.2,55.0,30.08,SW,236,9.5,19.3,99,0.00,,BKN110,0.00,VWS V14.01,2013-04-17 05:23:00,
2013-04-17 01:29:00,55.3,55.0,30.09,WSW,240,7.4,17.3,99,0.00,,BKN110,0.00,VWS V14.01,2013-04-17 05:29:00,
2013-04-17 01:35:00,55.4,55.2,30.08,NW,307,8.2,18.2,99,0.00,,BKN110,0.00,VWS V14.01,2013-04-17 05:35:00,
2013-04-17 01:41:00,55.5,55.3,30.08,SW,232,6.0,12.2,99,0.00,,BKN110,0.00,VWS V14.01,2013-04-17 05:41:00,
2013-04-17 01:47:00,55.6,55.5,30.07,WSW,239,9.2,15.4,100,0.00,,BKN110,0.00,VWS V14.01,2013-04-17 05:47:00,
2013-04-17 01:53:00,55.7,55.6,30.08,SW,228,7.8,12.4,100,0.00,,BKN110,0.00,VWS V14.01,2013-04-17 05:53:00,
2013-04-17 01:59:00,55.7,55.6,30.07,West,264,12.2,16.9,100,0.00,,BKN110,0.00,VWS V14.01,2013-04-17 05:59:00,
2013-04-17 02:05:00,55.6,55.6,30.07,NW,319,6.8,13.6,100,0.00,,OVC070,0.00,VWS V14.01,2013-04-17 06:05:00,
2013-04-17 02:11:00,55.5,55.5,30.07,West,259,10.3,14.8,100,0.00,,OVC070,0.00,VWS V14.01,2013-04-17 06:11:00,
2013-04-17 02:17:00,55.5,55.5,30.07,West,273,6.5,23.6,100,0.00,,OVC070,0.00,VWS V14.01,2013-04-17 06:17:00,
2013-04-17 02:23:00,55.8,55.8,30.07,SW,226,11.1,13.9,100,0.00,,OVC070,0.00,VWS V14.01,2013-04-17 06:23:00,
2013-04-17 02:29:00,55.7,55.7,30.07,WNW,291,5.5,9.6,100,0.00,,OVC070,0.00,VWS V14.01,2013-04-17 06:29:00,
2013-04-17 02:35:00,55.8,55.8,30.08,West,277,9.8,14.7,100,0.00,,OVC070,0.00,VWS V14.01,2013-04-17 06:35:00,
2013-04-17 02:41:00,55.8,55.8,30.08,NNW,346,5.9,10.6,100,0.00,,OVC070,0.00,VWS V14.01,2013-04-17 06:41:00,
2013-04-17 02:47:00,55.6,55.6,30.09,West,276,8.9,10.8,100,0.00,,OVC070,0.00,VWS V14.01,2013-04-17 06:47:00,
2013-04-17 02:53:00,55.6,55.6,30.09,NW,304,7.8,14.9,100,0.00,,OVC070,0.00,VWS V14.01,2013-04-17 06:53:00,
2013-04-17 02:59:00,55.4,55.4,30.09,West,274,6.0,13.0,100,0.00,,OVC070,0.00,VWS V14.01,2013-04-17 06:59:00,
2013-04-17 03:05:00,54.5,54.5,30.09,WSW,240,7.4,15.1,100,0.00,,OVC110,0.00,VWS V14.01,2013-04-17 07:05:00,
2013-04-17 03:11:00,53.6,53.6,30.08,SW,224,5.6,15.8,100,0.00,,OVC030,0.00,VWS V14.01,2013-04-17 07:11:00,
2013-04-17 03:17:00,53.5,53.5,30.09,NW,308,5.2,10.0,100,0.00,,OVC030,0.00,VWS V14.01,2013-04-17 07:17:00,
2013-04-17 03:23:00,53.5,53.5,30.09,West,259,4.8,11.8,100,0.00,,OVC030,0.00,VWS V14.01,2013-04-17 07:23:00,
2013-04-17 03:29:00,53.6,53.6,30.09,WNW,301,4.4,8.3,100,0.00,,OVC030,0.00,VWS V14.01,2013-04-17 07:29:00,
2013-04-17 03:35:00,53.5,53.5,30.09,WSW,257,8.4,11.6,100,0.00,,OVC030,0.00,VWS V14.01,2013-04-17 07:35:00,
2013-04-17 03:41:00,53.6,53.6,30.09,NNW,328,4.6,11.1,100,0.00,,OVC039,0.00,VWS V14.01,2013-04-17 07:41:00,
2013-04-17 03:47:00,53.7,53.7,30.08,WSW,253,6.0,7.9,100,0.00,,OVC039,0.00,VWS V14.01,2013-04-17 07:47:00,
2013-04-17 03:53:00,53.9,53.9,30.09,WSW,256,6.1,7.9,100,0.00,,OVC039,0.00,VWS V14.01,2013-04-17 07:53:00,
2013-04-17 03:59:00,54.0,54.0,30.08,West,260,11.4,11.4,100,0.00,,OVC039,0.00,VWS V14.01,2013-04-17 07:59:00,
2013-04-17 04:05:00,54.2,54.2,30.09,WNW,300,6.2,7.3,100,0.00,,OVC095,0.00,VWS V14.01,2013-04-17 08:05:00,
2013-04-17 04:11:00,54.3,54.3,30.09,WNW,297,3.7,8.5,100,0.00,,OVC095,0.00,VWS V14.01,2013-04-17 08:11:00,
2013-04-17 04:17:00,54.5,54.5,30.09,West,260,5.9,7.8,100,0.00,,OVC095,0.00,VWS V14.01,2013-04-17 08:17:00,
2013-04-17 04:23:00,54.6,54.6,30.09,NW,326,5.3,7.5,100,0.00,,OVC095,0.00,VWS V14.01,2013-04-17 08:23:00,
2013-04-17 04:29:00,54.7,54.7,30.09,WNW,292,4.2,8.2,100,0.00,,OVC095,0.00,VWS V14.01,2013-04-17 08:29:00,
2013-04-17 04:35:00,54.8,54.8,30.09,West,264,7.2,10.0,100,0.00,,OVC095,0.00,VWS V14.01,2013-04-17 08:35:00,
2013-04-17 04:41:00,54.7,54.7,30.08,WSW,252,6.7,11.1,100,0.00,,OVC095,0.00,VWS V14.01,2013-04-17 08:41:00,
2013-04-17 04:47:00,54.7,54.7,30.09,WSW,243,4.5,9.0,100,0.00,,OVC095,0.00,VWS V14.01,2013-04-17 08:47:00,
2013-04-17 04:53:00,54.6,54.6,30.09,West,262,2.5,7.2,100,0.00,,OVC095,0.00,VWS V14.01,2013-04-17 08:53:00,
2013-04-17 04:59:00,54.6,54.6,30.09,WNW,297,2.5,6.8,100,0.00,,OVC095,0.00,VWS V14.01,2013-04-17 08:59:00,
2013-04-17 05:05:00,54.6,54.6,30.09,WSW,252,4.9,5.7,100,0.00,,OVC049,0.00,VWS V14.01,2013-04-17 09:05:00,
2013-04-17 05:11:00,54.6,54.6,30.09,WNW,297,3.7,7.1,100,0.00,,OVC049,0.00,VWS V14.01,2013-04-17 09:11:00,
2013-04-17 05:17:00,54.7,54.7,30.10,West,259,5.9,11.2,100,0.00,,OVC049,0.00,VWS V14.01,2013-04-17 09:17:00,
2013-04-17 05:23:00,54.6,54.6,30.09,West,274,5.2,9.1,100,0.00,,OVC049,0.00,VWS V14.01,2013-04-17 09:23:00,
2013-04-17 05:29:00,54.7,54.7,30.10,West,277,3.0,7.0,100,0.00,,OVC049,0.00,VWS V14.01,2013-04-17 09:29:00,
2013-04-17 05:35:00,54.6,54.6,30.10,WSW,257,2.5,2.5,100,0.00,,OVC049,0.00,VWS V14.01,2013-04-17 09:35:00,
2013-04-17 05:41:00,54.6,54.6,30.10,West,264,5.4,6.2,100,0.00,,OVC049,0.00,VWS V14.01,2013-04-17 09:41:00,
2013-04-17 05:47:00,54.5,54.5,30.10,West,266,3.1,7.4,100,0.00,,OVC049,0.00,VWS V14.01,2013-04-17 09:47:00,
2013-04-17 05:53:00,54.5,54.5,30.10,SW,235,2.5,4.9,100,0.00,,OVC049,0.00,VWS V14.01,2013-04-17 09:53:00,
2013-04-17 05:59:00,54.2,54.2,30.10,SW,235,2.5,2.5,100,0.00,,OVC049,0.00,VWS V14.01,2013-04-17 09:59:00,
2013-04-17 06:05:00,54.2,54.2,30.10,North,352,2.5,2.5,100,0.00,,OVC095,0.00,VWS V14.01,2013-04-17 10:05:00,
2013-04-17 06:11:00,54.2,54.2,30.10,NW,305,2.5,4.6,100,0.00,,OVC095,0.00,VWS V14.01,2013-04-17 10:11:00,
2013-04-17 06:17:00,54.1,54.1,30.10,NW,305,2.5,2.5,100,0.00,,OVC095,0.00,VWS V14.01,2013-04-17 10:17:00,
2013-04-17 06:23:00,53.9,53.9,30.11,NW,305,2.5,2.5,100,0.00,,OVC095,0.00,VWS V14.01,2013-04-17 10:23:00,
2013-04-17 06:29:00,54.1,54.1,30.11,North,357,2.5,2.5,100,0.00,,OVC095,0.00,VWS V14.01,2013-04-17 10:29:00,
2013-04-17 06:35:00,54.1,54.1,30.11,NE,38,4.4,7.7,100,0.00,,OVC095,0.00,VWS V14.01,2013-04-17 10:35:00,
2013-04-17 06:41:00,54.2,54.2,30.12,ENE,68,2.5,3.8,100,0.00,,OVC095,0.00,VWS V14.01,2013-04-17 10:41:00,
2013-04-17 06:47:00,54.1,52.9,30.12,ENE,65,2.5,6.3,96,0.00,,OVC095,0.00,VWS V14.01,2013-04-17 10:47:00,
2013-04-17 06:53:00,54.3,52.1,30.13,NE,45,5.5,5.9,92,0.00,,OVC095,0.00,VWS V14.01,2013-04-17 10:53:00,
2013-04-17 06:59:00,54.3,51.1,30.12,NE,37,5.2,5.7,89,0.00,,OVC095,0.00,VWS V14.01,2013-04-17 10:59:00,
2013-04-17 07:05:00,54.2,50.8,30.13,NNE,32,5.9,6.5,88,0.00,,SCT110,0.00,VWS V14.01,2013-04-17 11:05:00,
2013-04-17 07:11:00,54.4,50.8,30.13,North,6,5.6,6.3,88,0.00,,SCT110,0.00,VWS V14.01,2013-04-17 11:11:00,
2013-04-17 07:17:00,54.7,50.9,30.13,East,89,2.5,3.6,87,0.00,,SCT110,0.00,VWS V14.01,2013-04-17 11:17:00,
2013-04-17 07:23:00,55.0,50.9,30.14,North,11,2.5,5.2,86,0.00,,SCT110,0.00,VWS V14.01,2013-04-17 11:23:00,
2013-04-17 07:29:00,54.6,50.3,30.14,North,1,4.0,9.2,86,0.00,,SCT110,0.00,VWS V14.01,2013-04-17 11:29:00,
2013-04-17 07:35:00,54.8,50.5,30.14,NNE,28,5.7,6.1,85,0.00,,SCT110,0.00,VWS V14.01,2013-04-17 11:35:00,
2013-04-17 07:41:00,55.1,50.7,30.15,NNE,15,7.7,7.7,85,0.00,,SCT110,0.00,VWS V14.01,2013-04-17 11:41:00,
2013-04-17 07:47:00,55.2,50.2,30.15,ENE,69,7.6,8.5,83,0.00,,SCT110,0.00,VWS V14.01,2013-04-17 11:47:00,
2013-04-17 07:53:00,55.2,50.0,30.15,NNE,28,5.1,8.9,83,0.00,,SCT110,0.00,VWS V14.01,2013-04-17 11:53:00,
2013-04-17 07:59:00,55.9,50.0,30.15,NNW,343,5.8,9.8,81,0.00,,SCT110,0.00,VWS V14.01,2013-04-17 11:59:00,
2013-04-17 08:05:00,56.6,50.1,30.15,NNE,21,7.4,9.7,79,0.00,,SCT110,0.00,VWS V14.01,2013-04-17 12:05:00,
2013-04-17 08:11:00,56.8,50.0,30.15,NE,44,4.7,7.5,78,0.00,,SCT110,0.00,VWS V14.01,2013-04-17 12:11:00,
2013-04-17 08:17:00,56.7,49.6,30.15,NNE,13,6.7,10.9,77,0.00,,SCT110,0.00,VWS V14.01,2013-04-17 12:17:00,
2013-04-17 08:23:00,57.4,50.5,30.15,North,3,8.7,8.7,78,0.00,,SCT110,0.00,VWS V14.01,2013-04-17 12:23:00,
2013-04-17 08:29:00,57.1,49.7,30.16,NE,34,5.2,9.3,76,0.00,,SCT110,0.00,VWS V14.01,2013-04-17 12:29:00,
2013-04-17 08:35:00,57.4,49.3,30.16,South,184,4.3,8.8,74,0.00,,SCT110,0.00,VWS V14.01,2013-04-17 12:35:00,
2013-04-17 08:41:00,56.3,46.5,30.16,NE,34,6.9,12.3,70,0.00,,SCT110,0.00,VWS V14.01,2013-04-17 12:41:00,
2013-04-17 08:47:00,56.8,46.6,30.17,NNW,343,12.8,12.8,68,0.00,,SCT110,0.00,VWS V14.01,2013-04-17 12:47:00,
2013-04-17 08:53:00,58.0,46.5,30.17,North,357,10.1,10.1,66,0.00,,SCT110,0.00,VWS V14.01,2013-04-17 12:53:00,
2013-04-17 08:59:00,57.7,46.6,30.17,North,359,6.8,7.6,66,0.00,,SCT110,0.00,VWS V14.01,2013-04-17 12:59:00,
2013-04-17 09:05:00,58.0,46.8,30.17,East,90,5.2,10.5,66,0.00,,SCT110,0.00,VWS V14.01,2013-04-17 13:05:00,
2013-04-17 09:11:00,57.9,46.4,30.17,ESE,103,4.9,7.5,65,0.00,,SCT110,0.00,VWS V14.01,2013-04-17 13:11:00,
2013-04-17 09:17:00,56.9,45.8,30.17,ENE,63,8.2,8.6,66,0.00,,SCT110,0.00,VWS V14.01,2013-04-17 13:17:00,
2013-04-17 09:23:00,56.4,45.5,30.17,ENE,60,7.1,12.9,67,0.00,,SCT110,0.00,VWS V14.01,2013-04-17 13:23:00,
2013-04-17 09:29:00,55.6,45.3,30.18,NNW,329,6.8,11.3,68,0.00,,SCT110,0.00,VWS V14.01,2013-04-17 13:29:00,
2013-04-17 09:35:00,55.6,45.6,30.18,East,89,5.9,9.6,69,0.00,,SCT110,0.00,VWS V14.01,2013-04-17 13:35:00,
2013-04-17 09:41:00,57.6,46.3,30.18,North,354,4.3,7.2,66,0.00,,SCT110,0.00,VWS V14.01,2013-04-17 13:41:00,
2013-04-17 09:47:00,56.8,45.7,30.18,ENE,65,5.7,7.5,66,0.00,,SCT110,0.00,VWS V14.01,2013-04-17 13:47:00,
2013-04-17 09:53:00,59.4,45.4,30.18,NE,56,7.9,8.2,60,0.00,,SCT110,0.00,VWS V14.01,2013-04-17 13:53:00,
2013-04-17 09:59:00,58.3,45.3,30.18,NNE,24,8.0,8.4,62,0.00,,SCT110,0.00,VWS V14.01,2013-04-17 13:59:00,
2013-04-17 10:05:00,59.7,45.5,30.18,NNE,21,7.1,9.8,59,0.00,,SCT110,0.00,VWS V14.01,2013-04-17 14:05:00,
2013-04-17 10:11:00,59.3,40.8,30.18,NNE,28,6.0,11.8,50,0.00,,SCT110,0.00,VWS V14.01,2013-04-17 14:11:00,
2013-04-17 10:17:00,58.4,41.9,30.18,ENE,75,7.1,9.6,54,0.00,,SCT110,0.00,VWS V14.01,2013-04-17 14:17:00,
2013-04-17 10:23:00,59.3,39.8,30.18,North,3,10.5,11.1,48,0.00,,SCT110,0.00,VWS V14.01,2013-04-17 14:23:00,
2013-04-17 10:29:00,60.7,40.6,30.19,NE,34,7.6,9.3,47,0.00,,SCT110,0.00,VWS V14.01,2013-04-17 14:29:00,
2013-04-17 10:35:00,62.1,41.3,30.19,NNE,28,6.9,9.5,46,0.00,,SCT110,0.00,VWS V14.01,2013-04-17 14:35:00,
2013-04-17 10:41:00,63.1,40.9,30.19,NNE,24,4.9,7.7,44,0.00,,SCT110,0.00,VWS V14.01,2013-04-17 14:41:00,
2013-04-17 10:47:00,63.5,41.3,30.18,NE,51,6.5,10.6,44,0.00,,SCT110,0.00,VWS V14.01,2013-04-17 14:47:00,
2013-04-17 10:53:00,64.3,41.0,30.18,NNE,25,6.1,8.6,42,0.00,,SCT110,0.00,VWS V14.01,2013-04-17 14:53:00,
2013-04-17 10:59:00,64.9,40.2,30.18,East,80,6.6,14.9,40,0.00,,SCT110,0.00,VWS V14.01,2013-04-17 14:59:00,
2013-04-17 11:05:00,64.3,40.6,30.18,North,359,6.3,7.0,42,0.00,,SCT250,0.00,VWS V14.01,2013-04-17 15:05:00,
2013-04-17 11:11:00,63.8,40.1,30.18,North,8,11.4,11.4,42,0.00,,SCT250,0.00,VWS V14.01,2013-04-17 15:11:00,
2013-04-17 11:17:00,63.2,40.8,30.19,NNE,20,7.3,7.9,44,0.00,,SCT250,0.00,VWS V14.01,2013-04-17 15:17:00,
2013-04-17 11:23:00,64.2,39.0,30.18,NE,42,7.3,12.1,39,0.00,,SCT250,0.00,VWS V14.01,2013-04-17 15:23:00,
2013-04-17 11:29:00,62.1,39.5,30.18,ESE,110,6.5,9.2,43,0.00,,SCT250,0.00,VWS V14.01,2013-04-17 15:29:00,
2013-04-17 11:35:00,64.2,40.7,30.18,ESE,111,4.9,11.6,42,0.00,,SCT250,0.00,VWS V14.01,2013-04-17 15:35:00,
2013-04-17 11:41:00,63.4,38.7,30.18,ENE,65,7.7,11.3,40,0.00,,SCT250,0.00,VWS V14.01,2013-04-17 15:41:00,
2013-04-17 11:47:00,63.1,38.5,30.18,East,96,9.7,11.3,40,0.00,,SCT250,0.00,VWS V14.01,2013-04-17 15:47:00,
2013-04-17 11:53:00,63.3,40.5,30.18,North,0,9.5,9.5,43,0.00,,SCT250,0.00,VWS V14.01,2013-04-17 15:53:00,
2013-04-17 11:59:00,62.5,37.7,30.18,NNE,18,7.3,13.3,40,0.00,,SCT250,0.00,VWS V14.01,2013-04-17 15:59:00,
2013-04-17 12:05:00,64.7,38.2,30.18,East,93,6.8,9.2,38,0.00,,FEW250,0.00,VWS V14.01,2013-04-17 16:05:00,
2013-04-17 12:13:00,64.8,37.5,30.18,ENE,66,7.2,10.0,36,0.00,,FEW250,0.00,VWS V14.01,2013-04-17 16:13:00,
2013-04-17 12:19:00,63.0,36.9,30.18,NNE,24,7.2,9.8,38,0.00,,FEW250,0.00,VWS V14.01,2013-04-17 16:19:00,
2013-04-17 12:25:00,63.0,36.9,30.18,NE,44,7.3,9.0,38,0.00,,FEW250,0.00,VWS V14.01,2013-04-17 16:25:00,
2013-04-17 12:31:00,64.4,36.5,30.18,NNE,27,5.2,10.1,35,0.00,,FEW250,0.00,VWS V14.01,2013-04-17 16:31:00,
2013-04-17 12:37:00,64.9,34.5,30.18,NE,49,8.1,9.7,32,0.00,,FEW250,0.00,VWS V14.01,2013-04-17 16:37:00,
2013-04-17 12:43:00,64.4,35.8,30.18,NNE,13,5.9,9.6,34,0.00,,FEW250,0.00,VWS V14.01,2013-04-17 16:43:00,
2013-04-17 12:49:00,65.0,35.3,30.18,East,96,8.5,8.6,33,0.00,,FEW250,0.00,VWS V14.01,2013-04-17 16:49:00,
2013-04-17 12:55:00,65.0,35.5,30.18,ESE,115,7.3,8.5,33,0.00,,FEW250,0.00,VWS V14.01,2013-04-17 16:55:00,
2013-04-17 13:01:00,63.2,32.8,30.18,East,80,7.8,15.1,32,0.00,,FEW250,0.00,VWS V14.01,2013-04-17 17:01:00,
2013-04-17 13:07:00,63.4,30.4,30.18,NNE,31,9.2,13.3,29,0.00,,FEW250,0.00,VWS V14.01,2013-04-17 17:07:00,
2013-04-17 13:13:00,65.4,31.4,30.18,East,79,7.0,10.4,28,0.00,,FEW250,0.00,VWS V14.01,2013-04-17 17:13:00,
2013-04-17 13:19:00,65.7,30.8,30.18,ENE,66,7.7,11.3,27,0.00,,FEW250,0.00,VWS V14.01,2013-04-17 17:19:00,
2013-04-17 13:25:00,65.0,32.4,30.18,NE,45,5.8,10.5,30,0.00,,FEW250,0.00,VWS V14.01,2013-04-17 17:25:00,
2013-04-17 13:33:00,67.3,31.5,30.17,ENE,59,4.8,9.3,26,0.00,,FEW250,0.00,VWS V14.01,2013-04-17 17:33:00,
2013-04-17 13:39:00,66.9,32.4,30.17,ENE,70,5.7,16.6,28,0.00,,FEW250,0.00,VWS V14.01,2013-04-17 17:39:00,
2013-04-17 13:45:00,66.8,30.4,30.17,NE,44,5.4,10.5,26,0.00,,FEW250,0.00,VWS V14.01,2013-04-17 17:45:00,
2013-04-17 13:51:00,67.4,31.0,30.17,NNE,15,5.2,10.0,26,0.00,,FEW250,0.00,VWS V14.01,2013-04-17 17:51:00,
2013-04-17 13:57:00,66.9,29.8,30.17,North,11,9.2,10.5,25,0.00,,FEW250,0.00,VWS V14.01,2013-04-17 17:57:00,
2013-04-17 14:03:00,66.4,28.3,30.17,East,82,7.5,11.1,24,0.00,,FEW250,0.00,VWS V14.01,2013-04-17 18:03:00,
2013-04-17 14:09:00,66.4,32.3,30.18,NE,56,5.9,9.0,28,0.00,,FEW250,0.00,VWS V14.01,2013-04-17 18:09:00,
2013-04-17 14:15:00,67.1,31.1,30.18,East,93,6.7,10.1,26,0.00,,FEW250,0.00,VWS V14.01,2013-04-17 18:15:00,
2013-04-17 14:21:00,68.9,30.5,30.18,ESE,112,6.9,10.0,24,0.00,,FEW250,0.00,VWS V14.01,2013-04-17 18:21:00,
2013-04-17 14:27:00,69.4,31.4,30.17,NE,35,6.7,10.2,24,0.00,,FEW250,0.00,VWS V14.01,2013-04-17 18:27:00,
2013-04-17 14:33:00,69.5,28.4,30.17,East,79,5.3,9.2,21,0.00,,FEW250,0.00,VWS V14.01,2013-04-17 18:33:00,
2013-04-17 14:39:00,67.3,29.3,30.17,ENE,68,6.5,8.8,24,0.00,,FEW250,0.00,VWS V14.01,2013-04-17 18:39:00,
2013-04-17 14:45:00,66.8,30.8,30.17,East,96,7.3,8.3,26,0.00,,FEW250,0.00,VWS V14.01,2013-04-17 18:45:00,
2013-04-17 14:51:00,68.4,31.6,30.17,SSE,150,7.1,9.8,25,0.00,,FEW250,0.00,VWS V14.01,2013-04-17 18:51:00,
2013-04-17 14:57:00,64.6,31.3,30.17,East,98,7.3,8.5,29,0.00,,FEW250,0.00,VWS V14.01,2013-04-17 18:57:00,
2013-04-17 15:03:00,67.1,30.7,30.18,ESE,120,6.4,9.2,26,0.00,,FEW,0.00,VWS V14.01,2013-04-17 19:03:00,
2013-04-17 15:09:00,66.8,32.1,30.18,ENE,60,5.7,9.6,27,0.00,,FEW,0.00,VWS V14.01,2013-04-17 19:09:00,
2013-04-17 15:15:00,63.5,30.9,30.18,ENE,59,6.4,9.7,29,0.00,,FEW,0.00,VWS V14.01,2013-04-17 19:15:00,
2013-04-17 15:21:00,65.0,29.7,30.18,ESE,108,6.8,10.6,26,0.00,,FEW,0.00,VWS V14.01,2013-04-17 19:21:00,
2013-04-17 15:27:00,65.1,31.6,30.18,NW,304,4.2,7.7,28,0.00,,FEW,0.00,VWS V14.01,2013-04-17 19:27:00,
2013-04-17 15:33:00,66.3,28.9,30.18,ESE,108,4.7,8.8,24,0.00,,FEW,0.00,VWS V14.01,2013-04-17 19:33:00,
2013-04-17 15:39:00,66.0,28.6,30.18,ESE,112,5.6,7.7,24,0.00,,FEW,0.00,VWS V14.01,2013-04-17 19:39:00,
2013-04-17 15:45:00,68.0,30.8,30.18,NNE,30,6.3,6.9,25,0.00,,FEW,0.00,VWS V14.01,2013-04-17 19:45:00,
2013-04-17 15:53:00,65.3,29.4,30.18,NE,46,4.3,8.7,26,0.00,,FEW,0.00,VWS V14.01,2013-04-17 19:53:00,
2013-04-17 15:59:00,66.2,28.6,30.18,East,84,7.3,10.7,24,0.00,,FEW,0.00,VWS V14.01,2013-04-17 19:59:00,
2013-04-17 16:05:00,63.3,29.3,30.18,NE,48,5.4,10.0,28,0.00,,CLR,0.00,VWS V14.01,2013-04-17 20:05:00,
2013-04-17 16:11:00,65.4,28.0,30.18,East,79,8.0,11.0,24,0.00,,CLR,0.00,VWS V14.01,2013-04-17 20:11:00,
2013-04-17 16:17:00,65.0,30.7,30.18,SE,145,4.4,6.6,28,0.00,,CLR,0.00,VWS V14.01,2013-04-17 20:17:00,
2013-04-17 16:23:00,65.7,29.3,30.18,East,91,4.2,9.1,25,0.00,,CLR,0.00,VWS V14.01,2013-04-17 20:23:00,
2013-04-17 16:29:00,63.7,28.5,30.19,East,100,5.5,10.0,26,0.00,,CLR,0.00,VWS V14.01,2013-04-17 20:29:00,
2013-04-17 16:35:00,67.2,29.9,30.19,East,80,5.2,8.8,25,0.00,,CLR,0.00,VWS V14.01,2013-04-17 20:35:00,
2013-04-17 16:41:00,65.4,31.0,30.19,ESE,117,4.9,6.7,28,0.00,,CLR,0.00,VWS V14.01,2013-04-17 20:41:00,
2013-04-17 16:47:00,67.7,30.9,30.19,East,97,4.8,5.2,25,0.00,,CLR,0.00,VWS V14.01,2013-04-17 20:47:00,
2013-04-17 16:53:00,69.9,28.5,30.19,SE,138,2.5,4.3,21,0.00,,CLR,0.00,VWS V14.01,2013-04-17 20:53:00,
2013-04-17 16:59:00,66.4,30.2,30.19,ENE,59,4.7,7.9,26,0.00,,CLR,0.00,VWS V14.01,2013-04-17 20:59:00,
2013-04-17 17:05:00,68.4,29.6,30.20,East,94,4.4,5.7,23,0.00,,CLR,0.00,VWS V14.01,2013-04-17 21:05:00,
2013-04-17 17:11:00,70.0,26.4,30.20,ENE,69,5.1,7.6,19,0.00,,CLR,0.00,VWS V14.01,2013-04-17 21:11:00,
2013-04-17 17:17:00,68.4,26.7,30.20,ENE,75,5.1,8.5,21,0.00,,CLR,0.00,VWS V14.01,2013-04-17 21:17:00,
2013-04-17 17:23:00,66.1,27.7,30.20,NNE,21,5.3,9.0,23,0.00,,CLR,0.00,VWS V14.01,2013-04-17 21:23:00,
2013-04-17 17:29:00,65.7,28.2,30.20,ESE,120,5.0,8.5,24,0.00,,CLR,0.00,VWS V14.01,2013-04-17 21:29:00,
2013-04-17 17:35:00,68.7,28.7,30.21,ESE,108,4.6,6.7,22,0.00,,CLR,0.00,VWS V14.01,2013-04-17 21:35:00,
2013-04-17 17:41:00,65.7,29.3,30.21,NE,46,2.5,7.0,25,0.00,,CLR,0.00,VWS V14.01,2013-04-17 21:41:00,
2013-04-17 17:47:00,62.9,31.3,30.21,East,79,3.3,4.2,30,0.00,,CLR,0.00,VWS V14.01,2013-04-17 21:47:00,
2013-04-17 17:53:00,63.0,31.2,30.22,East,90,3.8,4.3,30,0.00,,CLR,0.00,VWS V14.01,2013-04-17 21:53:00,
2013-04-17 17:59:00,68.3,28.8,30.22,ESE,107,2.5,3.7,23,0.00,,CLR,0.00,VWS V14.01,2013-04-17 21:59:00,
2013-04-17 18:05:00,69.6,29.4,30.22,SSE,152,4.9,8.3,22,0.00,,FEW250,0.00,VWS V14.01,2013-04-17 22:05:00,
2013-04-17 18:13:00,63.1,33.5,30.23,South,190,5.9,7.3,33,0.00,,FEW250,0.00,VWS V14.01,2013-04-17 22:13:00,
2013-04-17 18:19:00,58.7,33.4,30.23,South,188,7.0,7.2,38,0.00,,FEW250,0.00,VWS V14.01,2013-04-17 22:19:00,
2013-04-17 18:25:00,57.4,34.0,30.24,South,169,2.5,3.4,41,0.00,,FEW250,0.00,VWS V14.01,2013-04-17 22:25:00,
2013-04-17 18:31:00,56.6,34.2,30.23,South,170,2.5,2.5,43,0.00,,FEW250,0.00,VWS V14.01,2013-04-17 22:31:00,
2013-04-17 18:37:00,55.7,33.7,30.24,South,170,2.5,2.5,43,0.00,,FEW250,0.00,VWS V14.01,2013-04-17 22:37:00,
2013-04-17 18:43:00,55.3,34.6,30.24,SSW,212,2.5,2.5,45,0.00,,FEW250,0.00,VWS V14.01,2013-04-17 22:43:00,
2013-04-17 18:49:00,54.7,33.9,30.24,SSW,212,2.5,2.5,45,0.00,,FEW250,0.00,VWS V14.01,2013-04-17 22:49:00,
2013-04-17 18:55:00,53.9,33.9,30.24,SSW,212,2.5,2.5,46,0.00,,FEW250,0.00,VWS V14.01,2013-04-17 22:55:00,
2013-04-17 19:01:00,53.7,35.4,30.25,SSW,212,2.5,2.5,50,0.00,,SCT250,0.00,VWS V14.01,2013-04-17 23:01:00,
2013-04-17 19:07:00,53.3,35.4,30.25,SSW,212,2.5,2.5,50,0.00,,SCT250,0.00,VWS V14.01,2013-04-17 23:07:00,
2013-04-17 19:13:00,52.9,36.0,30.25,SSW,212,2.5,2.5,52,0.00,,SCT250,0.00,VWS V14.01,2013-04-17 23:13:00,
2013-04-17 19:19:00,52.5,36.8,30.26,SSW,212,2.5,2.5,55,0.00,,SCT250,0.00,VWS V14.01,2013-04-17 23:19:00,
2013-04-17 19:25:00,52.0,36.7,30.26,SSW,212,2.5,2.5,56,0.00,,SCT250,0.00,VWS V14.01,2013-04-17 23:25:00,
2013-04-17 19:31:00,51.6,37.2,30.26,SSW,212,2.5,2.5,58,0.00,,SCT250,0.00,VWS V14.01,2013-04-17 23:31:00,
2013-04-17 19:37:00,50.9,36.9,30.26,SSW,212,2.5,2.5,59,0.00,,SCT250,0.00,VWS V14.01,2013-04-17 23:37:00,
2013-04-17 19:43:00,50.7,37.7,30.26,SSW,212,2.5,2.5,61,0.00,,SCT250,0.00,VWS V14.01,2013-04-17 23:43:00,
2013-04-17 19:49:00,50.3,38.3,30.27,SSW,212,2.5,2.5,63,0.00,,SCT250,0.00,VWS V14.01,2013-04-17 23:49:00,
2013-04-17 19:55:00,49.9,39.0,30.27,SSW,212,2.5,2.5,66,0.00,,SCT250,0.00,VWS V14.01,2013-04-17 23:55:00,
2013-04-17 20:03:00,50.0,39.0,30.27,SSW,212,2.5,2.5,66,0.00,,BKN250,0.00,VWS V14.01,2013-04-18 00:03:00,
2013-04-17 20:09:00,49.6,38.2,30.28,SSW,212,2.5,2.5,65,0.00,,BKN250,0.00,VWS V14.01,2013-04-18 00:09:00,
2013-04-17 20:15:00,49.3,39.0,30.28,SSW,212,2.5,2.5,67,0.00,,BKN250,0.00,VWS V14.01,2013-04-18 00:15:00,
2013-04-17 20:21:00,49.3,39.0,30.28,SSW,212,2.5,2.5,68,0.00,,BKN250,0.00,VWS V14.01,2013-04-18 00:21:00,
2013-04-17 20:27:00,48.6,39.1,30.29,SSW,212,2.5,2.5,70,0.00,,BKN250,0.00,VWS V14.01,2013-04-18 00:27:00,
2013-04-17 20:33:00,48.6,39.2,30.29,SSW,212,2.5,2.5,70,0.00,,BKN250,0.00,VWS V14.01,2013-04-18 00:33:00,
2013-04-17 20:39:00,48.4,40.0,30.30,SSW,212,2.5,2.5,73,0.00,,BKN250,0.00,VWS V14.01,2013-04-18 00:39:00,
2013-04-17 20:45:00,48.1,40.7,30.30,SSW,212,2.5,2.5,75,0.00,,BKN250,0.00,VWS V14.01,2013-04-18 00:45:00,
2013-04-17 20:51:00,47.3,40.1,30.30,SSW,212,2.5,2.5,76,0.00,,BKN250,0.00,VWS V14.01,2013-04-18 00:51:00,
2013-04-17 20:57:00,47.0,41.1,30.31,SSW,212,2.5,2.5,80,0.00,,BKN250,0.00,VWS V14.01,2013-04-18 00:57:00,
2013-04-17 21:03:00,47.3,42.3,30.31,SSW,212,2.5,2.5,83,0.00,,FEW250,0.00,VWS V14.01,2013-04-18 01:03:00,
2013-04-17 21:09:00,48.1,42.4,30.31,WSW,243,3.3,5.4,80,0.00,,FEW250,0.00,VWS V14.01,2013-04-18 01:09:00,
2013-04-17 21:15:00,48.5,42.6,30.31,West,276,4.6,6.7,80,0.00,,FEW250,0.00,VWS V14.01,2013-04-18 01:15:00,
2013-04-17 21:21:00,48.9,42.4,30.31,West,270,4.5,8.1,78,0.00,,FEW250,0.00,VWS V14.01,2013-04-18 01:21:00,
2013-04-17 21:27:00,48.8,42.7,30.31,WSW,246,3.8,4.9,79,0.00,,FEW250,0.00,VWS V14.01,2013-04-18 01:27:00,
2013-04-17 21:33:00,48.5,43.0,30.31,WSW,242,3.2,3.4,81,0.00,,FEW250,0.00,VWS V14.01,2013-04-18 01:33:00,
2013-04-17 21:39:00,47.8,43.2,30.31,SW,221,2.5,2.5,84,0.00,,FEW250,0.00,VWS V14.01,2013-04-18 01:39:00,
2013-04-17 21:45:00,46.8,43.9,30.31,SW,221,2.5,2.5,90,0.00,,FEW250,0.00,VWS V14.01,2013-04-18 01:45:00,
2013-04-17 21:53:00,45.5,43.9,30.31,SW,221,2.5,2.5,94,0.00,,FEW250,0.00,VWS V14.01,2013-04-18 01:53:00,
2013-04-17 21:59:00,45.3,44.1,30.31,SW,221,2.5,2.5,96,0.00,,FEW250,0.00,VWS V14.01,2013-04-18 01:59:00,
2013-04-17 22:05:00,44.9,43.7,30.32,SW,221,2.5,2.5,95,0.00,,CLR,0.00,VWS V14.01,2013-04-18 02:05:00,
2013-04-17 22:11:00,44.6,43.7,30.32,SW,221,2.5,2.5,96,0.00,,CLR,0.00,VWS V14.01,2013-04-18 02:11:00,
2013-04-17 22:17:00,45.0,44.4,30.32,SW,221,2.5,2.5,98,0.00,,CLR,0.00,VWS V14.01,2013-04-18 02:17:00,
2013-04-17 22:23:00,45.1,44.6,30.32,West,267,4.5,6.0,98,0.00,,CLR,0.00,VWS V14.01,2013-04-18 02:23:00,
2013-04-17 22:29:00,45.7,44.8,30.32,WSW,245,2.5,2.5,97,0.00,,CLR,0.00,VWS V14.01,2013-04-18 02:29:00,
2013-04-17 22:35:00,44.4,43.9,30.33,SW,221,2.5,4.1,98,0.00,,CLR,0.00,VWS V14.01,2013-04-18 02:35:00,
2013-04-17 22:41:00,45.9,45.4,30.32,WSW,253,5.5,7.0,98,0.00,,CLR,0.00,VWS V14.01,2013-04-18 02:41:00,
2013-04-17 22:47:00,46.4,45.7,30.33,West,274,4.6,4.9,97,0.00,,CLR,0.00,VWS V14.01,2013-04-18 02:47:00,
2013-04-17 22:53:00,45.4,45.2,30.33,WNW,292,4.1,5.0,99,0.00,,CLR,0.00,VWS V14.01,2013-04-18 02:53:00,
2013-04-17 22:59:00,45.2,45.2,30.33,West,267,5.3,5.9,100,0.00,,CLR,0.00,VWS V14.01,2013-04-18 02:59:00,
2013-04-17 23:05:00,45.5,45.5,30.32,West,259,3.8,4.7,100,0.00,,CLR,0.00,VWS V14.01,2013-04-18 03:05:00,
2013-04-17 23:11:00,44.7,44.7,30.33,WSW,243,2.5,2.5,100,0.00,,CLR,0.00,VWS V14.01,2013-04-18 03:11:00,
2013-04-17 23:17:00,43.7,43.7,30.33,WSW,243,2.5,2.5,100,0.00,,CLR,0.00,VWS V14.01,2013-04-18 03:17:00,
2013-04-17 23:23:00,44.5,44.5,30.33,South,172,6.8,8.5,100,0.00,,CLR,0.00,VWS V14.01,2013-04-18 03:23:00,
2013-04-17 23:29:00,44.6,44.6,30.34,South,188,7.2,7.5,100,0.00,,CLR,0.00,VWS V14.01,2013-04-18 03:29:00,
2013-04-17 23:35:00,44.3,44.3,30.33,South,191,2.5,2.5,100,0.00,,CLR,0.00,VWS V14.01,2013-04-18 03:35:00,
2013-04-17 23:41:00,44.1,44.1,30.33,South,191,2.5,2.5,100,0.00,,CLR,0.00,VWS V14.01,2013-04-18 03:41:00,
2013-04-17 23:47:00,43.8,43.8,30.33,South,191,2.5,2.5,100,0.00,,CLR,0.00,VWS V14.01,2013-04-18 03:47:00,
2013-04-17 23:53:00,43.7,43.7,30.32,South,191,2.5,2.5,100,0.00,,CLR,0.00,VWS V14.01,2013-04-18 03:53:00,